Theta_e
311 311 311 311 311 312 312 311 311 311 311 311 311 312 312 312 311 306 300 303 299 296 299 306 309 304 305 305 301 305 305 304 304 298 297 298 296 299 296 297 298 297 296 294 292 291 292 308 308 302 303 306 310 308
310 310 310 310 310 310 311 311 311 311 311 311 311 311 312 311 311 307 296 303 303 296 298 306 307 309 312 312 306 304 303 303 306 302 301 300 300 298 296 296 301 298 301 299 298 298 304 306 306 308 309 308 308 308
309 309 309 310 310 310 310 310 311 311 311 311 311 311 311 311 311 308 300 298 297 295 298 298 304 309 308 309 314 303 303 307 306 307 303 302 300 301 297 299 301 301 303 301 300 305 306 309 310 310 310 310 311 310
309 309 309 309 309 309 310 310 310 310 310 310 310 311 311 311 311 309 297 297 296 293 289 296 307 302 307 305 307 310 309 308 305 304 301 300 300 304 300 302 301 303 302 301 302 305 308 311 311 312 313 313 312 312
308 309 309 309 309 309 309 309 310 310 310 310 310 310 310 310 311 307 300 298 299 293 288 291 299 303 305 305 305 307 306 303 301 299 298 298 301 303 302 301 299 303 302 301 300 305 306 308 312 314 312 311 313 313
309 309 309 309 309 309 309 309 309 309 310 310 310 310 310 310 309 295 291 299 300 301 291 290 298 301 303 305 305 304 306 304 303 301 299 302 305 305 298 299 306 305 305 307 306 307 310 312 313 314 312 312 312 311
307 308 308 308 308 309 309 309 309 309 309 309 309 309 310 309 300 293 289 299 304 302 294 292 293 303 306 304 302 302 305 304 304 301 300 302 303 306 299 298 304 305 307 309 309 311 308 311 311 313 313 313 313 312
308 308 308 308 308 308 308 309 309 309 309 309 310 309 309 309 304 299 300 305 304 292 294 292 293 297 301 298 299 302 300 301 302 305 301 304 302 302 299 304 307 309 308 310 311 311 311 311 310 310 312 311 310 310
307 308 308 308 308 308 308 308 309 309 309 309 309 308 301 296 291 294 308 308 298 294 294 297 293 289 300 298 301 302 300 297 304 302 304 305 301 299 302 306 305 307 310 310 311 311 310 310 309 309 309 309 309 309
307 307 307 308 308 308 308 308 308 308 309 308 300 294 289 299 308 307 301 299 296 298 297 291 296 294 297 295 296 299 300 298 293 301 304 303 303 308 305 308 309 311 310 310 308 306 306 306 308 307 307 308 310 313
307 307 308 308 308 308 307 308 308 308 304 295 291 290 295 304 296 293 292 293 294 290 289 291 290 290 296 292 291 298 297 300 296 298 299 297 301 305 308 310 309 310 309 312 313 313 312 311 308 307 308 312 314 315
307 308 308 308 308 308 307 308 308 298 295 296 298 299 295 296 292 290 289 291 292 288 293 292 292 293 296 297 296 296 296 299 294 302 298 295 300 305 309 312 313 311 313 313 312 311 311 310 310 310 313 314 315 316
308 308 308 308 308 307 307 307 307 306 303 301 298 294 292 291 285 284 280 286 287 290 293 293 291 296 297 299 294 294 293 293 304 298 296 298 302 306 309 312 313 313 313 312 312 312 311 310 312 313 314 316 316 314
308 308 308 308 307 307 307 307 307 304 299 293 290 283 285 280 283 284 286 287 292 291 293 294 293 293 297 296 294 290 295 296 292 294 296 300 304 307 308 313 311 311 311 311 310 311 311 311 312 316 318 317 315 313
308 308 308 306 307 307 307 307 305 301 295 291 289 282 284 287 287 289 291 291 294 296 296 294 294 294 291 295 294 295 294 291 294 293 299 303 305 307 309 312 312 311 310 310 311 311 314 315 315 315 316 316 315 314
308 306 302 307 308 307 307 305 302 299 295 291 290 286 287 285 286 287 288 289 293 296 297 296 292 289 286 291 293 293 292 291 295 300 302 304 305 309 310 310 312 311 311 312 313 315 315 316 316 315 315 315 313 311
306 296 306 306 306 306 306 300 298 294 291 289 287 290 288 285 286 287 288 290 295 295 291 293 286 285 287 286 293 296 292 295 299 301 304 304 307 310 312 312 312 313 313 315 314 315 314 315 316 316 314 312 312 312
297 304 306 307 304 303 300 299 294 292 287 289 286 286 286 288 288 290 290 292 294 295 294 291 293 286 286 285 290 296 297 300 302 303 304 307 307 309 315 314 314 314 316 315 315 314 315 314 315 315 314 312 313 312
300 301 305 307 301 298 294 294 295 288 287 286 286 286 287 288 291 293 294 294 293 298 297 295 291 287 289 295 295 297 294 298 300 302 304 309 307 306 311 315 314 315 316 315 315 316 316 314 314 314 314 313 312 313
307 307 307 307 304 296 293 292 296 290 287 287 288 287 287 287 290 290 291 291 292 295 292 291 291 294 295 299 301 297 295 301 302 301 303 307 307 307 306 305 313 315 315 314 313 311 314 313 314 315 315 314 313 313
302 300 306 304 299 298 295 290 292 292 289 288 292 290 288 288 288 289 289 291 290 290 289 291 292 294 297 302 302 298 302 304 302 302 302 302 306 305 306 306 311 315 315 314 314 312 314 315 314 315 315 314 314 314
296 306 301 301 296 295 293 291 289 290 289 290 292 292 289 286 287 288 289 288 288 290 292 292 293 294 298 299 302 300 304 305 305 305 303 304 305 305 305 307 315 315 313 315 315 315 314 315 315 316 316 315 313 314
302 300 295 297 293 291 288 290 289 288 287 290 293 290 290 288 289 293 288 289 290 292 293 295 294 298 300 300 301 302 306 306 304 304 305 306 306 306 307 311 317 316 313 313 316 316 316 309 313 316 316 315 315 313
303 296 292 291 291 287 288 286 288 288 291 290 288 288 289 289 293 293 291 289 292 293 292 294 299 299 299 300 300 302 304 306 306 306 307 306 305 305 307 313 318 319 318 317 317 316 317 317 311 315 315 312 308 306
289 287 289 285 290 289 287 287 286 288 287 290 287 288 290 294 292 291 286 290 292 295 296 294 297 299 298 299 301 304 307 307 305 304 307 307 305 305 313 316 319 320 320 317 315 315 314 315 314 313 313 310 307 306
285 287 284 288 288 285 286 287 289 289 291 290 289 290 292 290 289 288 289 291 293 295 296 298 296 298 298 301 300 303 306 308 305 303 304 305 304 307 307 312 316 318 319 318 316 315 313 312 312 314 314 310 302 309
285 286 288 292 291 291 290 291 292 291 291 291 293 291 287 284 285 291 297 298 293 296 299 304 304 300 300 301 304 308 308 307 304 304 306 306 307 309 310 310 315 318 321 319 318 317 315 313 317 314 311 310 310 311
290 290 286 289 289 291 290 291 290 291 292 296 295 289 285 287 289 296 298 301 300 301 303 305 306 306 302 303 304 304 303 305 307 306 307 308 312 315 316 317 320 309 322 322 320 318 317 317 315 315 313 313 311 311
290 293 292 289 290 291 291 291 291 292 296 296 294 293 295 297 299 301 303 305 303 301 301 303 305 306 307 304 302 302 303 303 303 302 304 305 310 316 318 318 319 320 320 318 306 313 318 318 317 316 315 313 315 314
292 295 291 292 291 291 294 296 294 297 298 298 297 297 299 301 305 308 304 302 301 302 304 306 307 303 302 302 302 304 305 305 305 304 302 302 306 315 317 318 316 315 316 317 316 315 301 308 306 313 313 313 314 312
296 296 293 294 293 297 299 300 301 301 300 299 300 297 298 301 305 307 305 305 306 307 306 307 308 308 305 305 305 304 303 307 307 307 307 307 309 312 317 318 315 312 313 314 314 312 311 310 311 312 312 312 312 312
295 293 293 292 294 299 300 299 300 300 300 299 299 300 302 303 302 305 307 308 307 307 306 307 308 309 313 313 311 309 301 307 308 312 311 308 308 312 318 316 313 315 316 315 315 313 313 313 312 312 314 313 311 312
294 294 294 294 294 295 298 299 298 298 299 297 297 300 302 301 300 306 310 312 311 310 310 311 312 312 313 313 314 313 307 313 312 305 306 307 307 310 316 315 316 315 314 314 315 313 313 312 312 312 312 311 311 311
Wind_Speed
10 11 11 12 13 14 12 13 14 14 14 15 16 16 17 18 18 8 4 3 3 3 7 5 3 1 3 2 3 5 6 3 4 2 4 5 4 7 4 5 4 4 2 4 3 2 7 8 2 9 8 5 10 7
9 10 11 12 12 13 13 13 14 14 14 15 15 16 15 16 16 10 3 4 3 3 7 3 9 12 7 10 3 1 3 2 4 2 1 0 3 1 4 4 1 2 7 4 9 8 5 3 3 4 8 10 7 8
10 11 11 12 12 13 13 14 14 14 15 15 15 16 15 15 14 10 3 4 3 3 7 2 12 9 12 14 8 4 4 7 3 2 1 2 3 4 4 6 2 3 4 3 3 3 4 4 5 4 4 7 7 6
10 11 11 12 13 13 13 14 14 15 14 15 16 16 16 16 14 12 1 3 2 3 3 9 5 8 5 2 5 12 13 6 0 3 2 3 2 3 3 3 4 6 1 2 1 2 4 6 1 8 7 7 8 5
10 11 11 12 12 13 14 14 14 15 15 15 16 16 16 16 14 9 3 3 3 2 3 8 15 14 12 13 15 13 11 5 3 1 3 5 3 2 2 1 4 4 7 5 6 7 5 6 6 6 8 7 9 9
11 11 12 13 13 13 14 14 14 15 15 16 16 16 16 15 10 4 4 2 2 3 1 5 7 9 5 5 8 8 11 8 5 6 5 5 5 6 5 7 8 6 5 7 6 6 9 6 8 4 7 8 6 8
12 12 13 13 14 14 14 14 15 15 16 17 17 16 15 12 1 1 4 3 5 5 2 6 6 7 7 5 2 3 8 6 6 5 6 5 5 6 5 8 5 6 7 5 6 6 4 6 8 7 9 9 9 7
12 12 13 13 14 14 14 15 15 16 17 17 17 17 16 16 6 5 4 10 5 3 2 5 6 7 4 4 4 1 3 3 4 7 1 11 2 3 9 11 13 9 6 6 8 7 7 8 9 8 10 11 9 8
13 13 13 14 13 14 14 14 14 15 16 17 18 19 3 2 0 5 10 7 2 4 3 4 3 4 6 4 4 5 2 4 4 7 9 8 8 11 9 10 7 10 15 12 7 7 8 12 11 11 9 8 9 6
13 14 14 14 14 13 13 14 14 15 16 17 4 4 4 1 15 13 4 1 1 1 2 5 4 7 8 5 5 5 3 5 3 7 5 10 14 13 8 9 11 13 11 9 8 7 7 7 12 9 8 7 8 8
14 14 15 15 14 13 12 12 11 12 7 4 4 3 4 11 4 3 2 2 1 3 3 3 2 5 5 10 7 5 5 5 4 4 4 5 8 8 10 10 9 8 8 13 9 16 19 21 15 10 8 8 9 9
14 14 13 13 12 11 11 10 7 2 1 2 3 4 3 2 1 2 2 3 4 3 3 2 7 5 6 5 5 5 6 5 7 3 0 5 3 8 13 17 14 11 10 11 7 14 13 15 13 11 11 9 8 8
14 13 13 12 12 11 10 9 7 6 4 2 1 3 1 2 2 4 4 3 3 3 4 3 6 3 5 5 5 5 6 7 3 1 5 2 5 6 7 14 15 10 9 9 12 14 15 12 10 11 10 7 9 7
12 12 12 12 11 10 9 7 5 2 1 1 2 4 3 3 5 5 4 4 5 4 8 7 6 5 4 7 6 6 6 1 2 3 4 1 8 13 14 12 8 15 17 17 18 17 16 15 11 10 11 10 9 8
11 12 12 11 7 6 8 4 3 1 1 1 2 5 6 5 4 4 4 4 9 7 7 9 7 5 5 7 5 4 3 5 4 2 3 8 13 12 16 9 12 17 16 15 14 15 14 13 12 8 8 8 7 8
9 10 2 6 6 2 3 7 2 1 1 3 5 5 5 4 7 3 4 7 4 5 3 4 5 4 5 7 5 4 4 2 4 4 7 9 12 13 15 7 14 16 18 15 13 12 12 11 11 9 8 8 7 8
4 3 5 5 1 4 6 2 1 3 3 4 5 7 9 5 8 8 3 6 3 3 5 3 5 3 2 5 2 4 3 2 6 7 7 8 9 10 11 4 14 17 17 15 12 11 8 8 9 10 10 6 7 7
3 2 3 2 3 1 1 3 3 4 6 6 5 6 4 5 5 7 5 5 2 2 2 3 3 3 4 6 2 1 2 4 5 6 7 7 8 10 7 5 9 13 14 12 12 8 9 9 9 7 8 7 6 5
5 4 5 5 3 1 2 3 2 5 7 3 5 4 4 5 7 10 8 8 4 4 2 2 4 3 3 4 6 7 2 3 5 6 6 5 13 10 10 8 7 6 11 11 9 8 7 8 7 6 6 5 5 4
9 9 8 6 4 2 3 3 2 4 5 5 3 4 4 5 4 4 5 3 2 2 4 4 5 3 3 5 4 2 2 4 4 5 7 5 9 9 8 5 2 4 5 7 7 9 7 6 4 5 5 5 5 4
3 4 4 5 2 4 3 3 4 4 4 3 2 4 6 3 4 4 4 3 2 4 4 5 4 4 6 4 2 2 1 3 2 2 4 5 8 5 6 4 3 2 7 6 8 7 8 6 4 4 4 4 3 3
3 6 2 3 3 3 4 4 4 4 3 4 3 5 5 4 4 3 1 2 4 6 5 4 3 3 5 4 2 2 3 4 5 5 5 3 7 8 8 6 2 3 5 7 7 8 5 5 5 5 5 4 4 3
2 2 1 4 5 4 6 1 3 3 3 4 3 4 3 3 4 2 2 4 5 5 4 4 2 4 6 2 1 3 2 4 4 5 6 6 7 7 5 4 3 5 5 3 6 6 6 6 6 5 4 3 2 3
4 2 3 4 5 5 1 3 3 3 3 3 3 4 3 3 3 2 3 4 4 3 2 5 4 1 2 3 0 3 4 3 4 6 4 5 8 10 5 3 2 4 5 5 6 6 6 5 6 5 4 5 5 5
1 5 3 5 2 3 4 4 4 2 4 3 3 4 3 3 2 2 3 4 4 4 5 0 3 4 3 3 1 2 3 2 3 6 3 1 6 5 5 3 2 4 4 7 6 7 5 4 4 5 4 5 7 6
4 5 8 4 4 4 5 4 4 4 4 4 4 2 2 3 3 4 4 2 3 3 3 3 3 2 2 2 4 3 5 4 3 3 7 5 2 2 4 3 6 3 2 7 7 6 6 5 5 5 4 6 8 6
5 6 5 5 3 3 4 4 4 4 5 4 2 2 1 3 4 4 4 3 3 3 3 3 2 4 4 4 3 4 3 3 4 5 5 5 5 2 2 1 3 2 4 6 6 6 7 6 5 6 5 3 4 5
5 4 6 3 4 3 4 3 4 4 4 3 1 4 3 3 4 4 6 4 4 4 4 4 4 3 4 5 3 3 3 3 5 5 5 3 3 4 3 4 3 9 5 5 7 5 6 6 6 6 5 4 4 3
5 4 3 8 5 4 5 7 5 5 3 4 4 3 4 5 5 5 8 5 4 3 3 3 4 2 3 3 1 1 2 2 2 4 3 4 5 4 4 3 4 4 5 4 6 6 4 1 4 5 4 4 4 4
4 4 4 4 3 5 5 6 4 4 4 4 3 6 8 8 6 5 3 3 3 3 3 4 3 1 3 5 3 3 4 4 4 4 2 1 2 4 2 3 4 3 3 4 2 2 10 5 3 3 5 3 4 3
3 2 4 4 5 7 9 7 7 8 7 7 7 8 8 3 3 3 4 4 3 2 2 2 3 4 4 4 4 4 4 4 6 6 5 3 2 2 4 3 3 2 2 3 2 1 4 3 4 7 8 7 6 5
3 5 3 4 4 4 5 2 3 3 3 2 2 1 2 2 2 2 3 4 3 2 5 4 4 4 4 3 3 3 3 1 1 4 6 5 5 4 3 2 4 3 3 3 3 6 7 8 6 6 6 7 7 7
3 3 4 3 3 3 3 3 3 3 2 2 3 2 2 2 1 2 2 3 4 4 4 5 5 4 5 5 5 4 5 4 5 4 6 7 8 7 5 4 4 4 4 3 3 4 5 6 6 4 5 7 8 7
Wind_Direction
336 338 338 337 340 338 336 337 339 341 340 343 346 347 353 358 3 8 285 345 40 288 279 246 269 266 337 157 200 295 353 338 348 52 149 208 174 219 140 225 195 180 157 218 107 126 274 197 87 165 192 124 151 175
332 332 333 334 335 335 336 334 334 337 338 339 339 339 345 350 358 18 331 327 342 201 257 310 263 247 227 235 150 267 244 345 252 57 295 146 246 133 156 232 4 268 186 200 172 216 264 285 200 134 145 143 179 153
322 325 327 329 332 332 331 331 331 332 335 335 334 335 338 340 343 357 296 299 349 300 289 240 249 286 217 229 193 191 267 198 273 175 207 236 262 122 176 238 208 259 153 184 71 308 330 33 50 83 124 141 154 155
317 319 321 324 324 325 327 328 329 329 327 329 330 329 329 332 333 335 203 216 125 264 273 279 349 306 322 325 204 218 244 287 15 77 165 259 226 164 232 244 176 202 113 152 306 299 44 345 243 154 135 119 117 120
310 316 319 321 321 322 323 325 326 326 326 326 324 324 324 326 326 319 269 222 202 128 271 294 312 274 253 239 234 221 227 194 177 174 182 216 226 177 225 57 249 195 183 157 217 206 159 221 193 162 138 152 147 136
311 313 315 316 316 318 319 320 320 319 318 317 317 317 318 320 346 4 12 9 34 167 275 290 288 286 288 226 228 216 217 218 194 171 196 219 243 154 202 219 221 215 215 173 225 208 188 204 170 161 150 146 144 124
312 313 313 312 312 312 313 314 316 318 317 313 313 312 311 313 100 206 212 212 202 13 326 294 280 268 272 256 253 223 206 206 199 204 200 198 225 181 191 228 242 232 211 206 217 140 85 156 178 157 126 122 121 115
309 311 311 307 307 311 314 313 312 314 314 309 308 307 305 299 294 255 249 258 178 162 214 271 268 318 354 311 304 269 244 200 224 219 166 197 153 171 235 221 220 229 207 232 234 236 187 138 111 113 127 131 122 131
305 307 308 311 308 307 313 315 313 314 310 306 309 309 6 59 169 244 257 5 100 148 259 243 265 286 348 312 276 306 271 241 213 210 203 159 183 218 195 189 187 211 212 220 207 161 150 142 140 139 137 139 128 133
304 306 307 305 307 309 311 314 314 316 311 316 3 16 321 242 313 310 38 94 161 268 246 263 356 282 354 348 297 333 276 249 234 232 131 213 221 205 206 198 192 211 208 155 121 126 114 122 148 154 163 154 144 149
301 301 303 303 301 300 304 309 314 325 352 19 359 274 269 314 20 16 276 220 177 244 227 257 281 299 292 262 265 245 277 274 241 243 194 216 221 205 190 216 201 212 197 197 184 170 172 162 162 155 154 147 141 147
300 303 302 301 298 297 300 305 314 25 244 239 278 277 301 312 290 274 258 302 236 260 310 278 281 267 266 240 221 245 207 262 246 347 29 254 207 184 192 216 213 212 177 187 173 157 156 154 154 149 147 149 152 144
301 300 301 296 295 294 297 298 302 257 302 290 259 267 266 281 263 215 223 202 252 238 247 251 297 264 282 229 232 249 224 229 303 233 226 266 331 340 272 211 218 181 158 149 157 149 140 135 139 144 142 136 134 133
295 296 294 295 289 285 282 287 291 333 75 322 338 289 243 224 243 208 217 210 239 228 272 271 261 225 234 238 221 212 233 108 229 222 244 355 343 333 307 286 149 154 149 152 144 140 139 141 138 135 140 144 137 142
295 299 298 301 319 272 267 240 133 55 92 263 216 244 238 241 265 260 264 291 269 268 256 284 256 229 242 259 220 200 197 243 195 271 326 334 318 320 309 242 180 152 148 140 138 135 134 133 136 133 142 141 136 129
305 319 300 285 297 330 131 122 64 77 259 242 232 254 268 283 280 251 248 252 250 238 274 249 257 273 271 310 210 181 221 58 348 300 301 312 305 333 316 207 160 150 139 131 129 128 127 130 135 136 128 136 139 141
319 239 334 333 222 133 146 91 152 229 244 230 240 238 243 264 263 266 240 253 229 267 285 276 282 289 300 283 189 15 21 269 283 297 297 294 301 335 320 344 128 125 119 122 120 123 120 117 116 125 138 155 145 156
253 271 319 344 123 170 259 196 236 242 246 238 248 244 199 219 251 264 242 256 213 260 261 238 266 294 287 332 28 284 266 277 287 289 298 297 34 2 348 358 98 112 118 120 121 116 120 126 130 138 137 143 127 133
236 271 284 227 177 232 261 224 206 264 243 238 248 247 237 229 233 244 263 270 224 215 239 249 279 260 257 254 290 296 336 320 320 307 297 277 68 21 16 19 30 110 118 123 123 131 139 138 139 134 135 133 132 150
261 257 249 226 164 258 260 241 189 249 262 248 244 252 240 228 248 239 246 240 217 226 223 227 228 231 242 279 260 280 26 288 318 337 345 355 55 22 12 327 302 107 95 95 95 107 109 104 106 117 127 142 138 159
309 252 178 157 217 215 267 271 237 229 254 248 321 347 270 275 256 253 249 174 154 223 240 228 242 266 266 268 347 33 330 315 334 8 312 341 351 355 331 334 302 122 121 116 118 119 121 134 132 134 144 150 160 166
256 170 129 197 240 248 249 218 232 273 271 253 275 192 264 287 275 251 222 146 220 226 206 210 225 208 259 260 287 353 14 313 327 328 312 3 12 344 336 334 167 111 112 123 122 129 125 125 121 124 127 150 159 153
316 157 241 218 232 228 257 106 237 256 269 277 305 277 249 276 255 335 302 236 250 234 213 215 186 203 237 216 111 360 357 339 341 342 339 343 302 297 287 256 177 132 110 95 119 120 112 116 116 118 118 112 102 93
239 243 231 232 203 260 278 264 227 257 262 253 260 272 263 250 269 239 254 263 260 331 261 188 153 103 14 86 120 2 342 334 315 315 312 325 337 334 316 82 130 116 122 115 111 106 120 118 121 115 122 121 123 108
279 249 200 254 260 248 251 250 254 223 262 246 268 264 275 284 274 282 251 278 330 336 334 324 185 195 195 125 168 285 323 278 297 297 304 308 291 303 35 86 19 68 119 108 106 113 117 124 128 116 117 126 131 130
263 224 184 230 200 196 226 263 233 228 269 246 244 248 294 314 285 279 275 273 281 278 305 324 244 170 216 165 153 241 200 194 170 270 290 280 278 32 28 21 108 38 80 122 121 120 130 136 131 125 126 132 146 135
245 253 227 226 228 233 269 256 262 254 259 257 190 194 290 263 250 252 281 269 244 262 279 297 315 211 180 192 186 210 203 205 215 246 273 296 297 257 143 12 101 152 130 127 119 135 138 147 138 127 118 127 178 144
244 250 215 231 224 202 246 237 244 250 230 203 192 218 223 225 255 231 227 246 229 264 268 284 273 221 171 233 191 148 230 255 272 279 279 292 255 244 191 203 166 129 119 124 126 143 150 157 134 138 134 137 180 154
241 258 267 267 247 242 224 205 218 230 216 181 218 231 226 207 229 231 259 232 228 232 272 289 294 166 173 253 357 141 188 201 265 302 40 12 355 330 28 94 129 138 115 120 108 125 139 120 106 133 149 152 133 124
240 199 245 271 240 245 235 202 227 237 239 239 239 279 281 274 245 239 197 183 198 210 224 240 275 197 162 150 150 193 222 216 203 207 123 296 269 326 45 85 98 91 121 114 96 57 97 120 81 87 112 133 148 156
263 255 257 233 255 250 260 274 281 268 259 256 238 241 260 286 305 158 169 179 190 190 169 220 225 196 163 172 173 189 233 226 218 233 233 240 253 278 259 202 152 159 112 89 76 135 142 126 147 147 149 161 172 154
226 221 245 262 279 298 318 251 279 288 289 324 291 245 302 216 260 294 192 133 125 187 232 219 219 230 200 216 217 242 230 258 256 274 256 230 249 209 189 176 163 180 180 147 110 145 141 134 135 147 162 162 147 147
247 218 223 267 271 282 290 332 295 291 288 270 268 257 243 196 44 244 201 213 175 180 203 217 223 224 217 217 218 236 235 237 225 208 185 182 169 156 169 187 178 173 160 106 78 137 139 141 135 137 148 141 144 130